TimePDT,TemperatureF,Dew PointF,Humidity,Sea Level PressureIn,VisibilityMPH,Wind Direction,Wind SpeedMPH,Gust SpeedMPH,PrecipitationIn,Events,Conditions,WindDirDegrees,DateUTC
12:15 AM,46.4,42.8,87,30.09,7.0,Calm,Calm,-,N/A,,Overcast,0,2013-04-30 07:15:00
12:35 AM,46.4,41.0,81,30.09,8.0,Calm,Calm,-,N/A,,Overcast,0,2013-04-30 07:35:00
12:55 AM,44.6,41.0,87,30.09,8.0,Calm,Calm,-,N/A,,Overcast,0,2013-04-30 07:55:00
1:15 AM,44.6,41.0,87,30.09,8.0,Calm,Calm,-,N/A,,Overcast,0,2013-04-30 08:15:00
1:35 AM,44.6,41.0,87,30.09,8.0,Calm,Calm,-,N/A,,Overcast,0,2013-04-30 08:35:00
1:55 AM,44.6,41.0,87,30.09,9.0,Calm,Calm,-,N/A,,Overcast,0,2013-04-30 08:55:00
2:15 AM,44.6,41.0,87,30.09,9.0,Calm,Calm,-,N/A,,Overcast,0,2013-04-30 09:15:00
2:35 AM,44.6,41.0,87,30.09,8.0,Calm,Calm,-,N/A,,Overcast,0,2013-04-30 09:35:00
2:55 AM,44.6,41.0,87,30.10,9.0,Calm,Calm,-,N/A,,Overcast,0,2013-04-30 09:55:00
3:15 AM,44.6,41.0,87,30.09,9.0,Calm,Calm,-,N/A,,Overcast,0,2013-04-30 10:15:00
3:35 AM,44.6,41.0,87,30.09,9.0,Calm,Calm,-,N/A,,Overcast,0,2013-04-30 10:35:00
3:55 AM,44.6,41.0,87,30.09,8.0,Calm,Calm,-,N/A,,Overcast,0,2013-04-30 10:55:00
4:15 AM,42.8,41.0,93,30.09,8.0,Calm,Calm,-,N/A,,Overcast,0,2013-04-30 11:15:00
4:35 AM,42.8,39.2,87,30.08,8.0,Calm,Calm,-,N/A,,Scattered Clouds,0,2013-04-30 11:35:00
4:55 AM,41.0,39.2,93,30.08,8.0,Calm,Calm,-,N/A,,Clear,0,2013-04-30 11:55:00
5:15 AM,41.0,39.2,93,30.09,8.0,Calm,Calm,-,N/A,,Clear,0,2013-04-30 12:15:00
5:35 AM,42.8,39.2,87,30.09,9.0,Calm,Calm,-,N/A,,Clear,0,2013-04-30 12:35:00
5:55 AM,41.0,39.2,93,30.10,9.0,Calm,Calm,-,N/A,,Partly Cloudy,0,2013-04-30 12:55:00
6:15 AM,41.0,39.2,93,30.10,8.0,Calm,Calm,-,N/A,,Partly Cloudy,0,2013-04-30 13:15:00
6:35 AM,41.0,39.2,93,30.11,7.0,Calm,Calm,-,N/A,,Partly Cloudy,0,2013-04-30 13:35:00
6:55 AM,42.8,39.2,87,30.11,7.0,Calm,Calm,-,N/A,,Clear,0,2013-04-30 13:55:00
7:15 AM,44.6,39.2,81,30.12,8.0,Calm,Calm,-,N/A,,Clear,0,2013-04-30 14:15:00
7:35 AM,44.6,41.0,87,30.12,8.0,Calm,Calm,-,N/A,,Clear,0,2013-04-30 14:35:00
7:55 AM,46.4,39.2,76,30.12,8.0,Calm,Calm,-,N/A,,Clear,0,2013-04-30 14:55:00
8:15 AM,46.4,39.2,76,30.12,9.0,Calm,Calm,-,N/A,,Clear,0,2013-04-30 15:15:00
8:35 AM,46.4,41.0,81,30.12,9.0,Calm,Calm,-,N/A,,Clear,0,2013-04-30 15:35:00
8:55 AM,48.2,39.2,71,30.12,10.0,Calm,Calm,-,N/A,,Clear,0,2013-04-30 15:55:00
9:15 AM,48.2,39.2,71,30.13,10.0,Calm,Calm,-,N/A,,Clear,0,2013-04-30 16:15:00
9:35 AM,50.0,39.2,66,30.13,10.0,Calm,Calm,-,N/A,,Clear,0,2013-04-30 16:35:00
9:55 AM,50.0,41.0,71,30.13,10.0,Calm,Calm,-,N/A,,Clear,0,2013-04-30 16:55:00
10:15 AM,50.0,39.2,66,30.13,10.0,Calm,Calm,-,N/A,,Clear,0,2013-04-30 17:15:00
10:35 AM,50.0,41.0,71,30.14,10.0,Calm,Calm,-,N/A,,Clear,0,2013-04-30 17:35:00
10:55 AM,50.0,41.0,71,30.14,10.0,Calm,Calm,-,N/A,,Clear,0,2013-04-30 17:55:00
11:15 AM,51.8,39.2,62,30.15,10.0,Calm,Calm,-,N/A,,Clear,0,2013-04-30 18:15:00
11:35 AM,51.8,39.2,62,30.15,10.0,Calm,Calm,-,N/A,,Clear,0,2013-04-30 18:35:00
11:55 AM,53.6,41.0,62,30.16,10.0,Calm,Calm,-,N/A,,Clear,0,2013-04-30 18:55:00
12:15 PM,53.6,39.2,58,30.16,10.0,Calm,Calm,-,N/A,,Clear,0,2013-04-30 19:15:00
12:35 PM,53.6,39.2,58,30.16,10.0,Calm,Calm,-,N/A,,Clear,0,2013-04-30 19:35:00
12:55 PM,55.4,37.4,51,30.16,10.0,Calm,Calm,-,N/A,,Clear,0,2013-04-30 19:55:00
1:15 PM,55.4,35.6,47,30.16,10.0,Calm,Calm,-,N/A,,Clear,0,2013-04-30 20:15:00
1:35 PM,55.4,37.4,51,30.16,10.0,Calm,Calm,-,N/A,,Clear,0,2013-04-30 20:35:00
1:55 PM,55.4,35.6,47,30.16,10.0,Calm,Calm,-,N/A,,Clear,0,2013-04-30 20:55:00
2:15 PM,55.4,37.4,51,30.17,10.0,Calm,Calm,-,N/A,,Clear,0,2013-04-30 21:15:00
2:35 PM,55.4,39.2,54,30.16,10.0,Calm,Calm,-,N/A,,Clear,0,2013-04-30 21:35:00
2:55 PM,55.4,39.2,54,30.15,10.0,Calm,Calm,-,N/A,,Clear,0,2013-04-30 21:55:00
3:15 PM,55.4,39.2,54,30.15,10.0,WNW,10.4,-,N/A,,Clear,300,2013-04-30 22:15:00
3:35 PM,53.6,39.2,58,30.15,10.0,WNW,19.6,25.3,N/A,,Clear,290,2013-04-30 22:35:00
3:55 PM,53.6,39.2,58,30.14,10.0,WNW,16.1,25.3,N/A,,Clear,300,2013-04-30 22:55:00
4:15 PM,53.6,39.2,58,30.14,9.0,WNW,6.9,21.9,N/A,,Clear,300,2013-04-30 23:15:00
4:35 PM,53.6,41.0,62,30.14,9.0,Calm,Calm,-,N/A,,Clear,0,2013-04-30 23:35:00
5:15 PM,51.8,41.0,67,30.14,8.0,Calm,Calm,-,N/A,,Clear,0,2013-05-01 00:15:00
5:35 PM,50.0,41.0,71,30.15,8.0,Calm,Calm,-,N/A,,Clear,0,2013-05-01 00:35:00
5:55 PM,50.0,41.0,71,30.14,8.0,Calm,Calm,-,N/A,,Clear,0,2013-05-01 00:55:00
6:15 PM,50.0,41.0,71,30.15,8.0,Calm,Calm,-,N/A,,Clear,0,2013-05-01 01:15:00
6:35 PM,50.0,39.2,66,30.15,8.0,Calm,Calm,-,N/A,,Clear,0,2013-05-01 01:35:00
6:55 PM,48.2,39.2,71,30.15,8.0,Calm,Calm,-,N/A,,Clear,0,2013-05-01 01:55:00
7:15 PM,48.2,39.2,71,30.16,7.0,Calm,Calm,-,N/A,,Clear,0,2013-05-01 02:15:00
7:35 PM,46.4,39.2,76,30.16,7.0,Calm,Calm,-,N/A,,Clear,0,2013-05-01 02:35:00
7:55 PM,46.4,39.2,76,30.16,7.0,Calm,Calm,-,N/A,,Clear,0,2013-05-01 02:55:00
8:15 PM,46.4,39.2,76,30.17,6.0,Calm,Calm,-,N/A,,Clear,0,2013-05-01 03:15:00
8:35 PM,44.6,41.0,87,30.17,7.0,Calm,Calm,-,N/A,,Clear,0,2013-05-01 03:35:00
8:55 PM,44.6,41.0,87,30.17,7.0,Calm,Calm,-,N/A,,Clear,0,2013-05-01 03:55:00
9:15 PM,44.6,41.0,87,30.17,7.0,Calm,Calm,-,N/A,,Clear,0,2013-05-01 04:15:00
9:35 PM,44.6,41.0,87,30.18,7.0,Calm,Calm,-,N/A,,Clear,0,2013-05-01 04:35:00
9:55 PM,44.6,41.0,87,30.18,7.0,Calm,Calm,-,N/A,,Clear,0,2013-05-01 04:55:00
10:15 PM,44.6,41.0,87,30.18,7.0,Calm,Calm,-,N/A,,Partly Cloudy,0,2013-05-01 05:15:00
10:35 PM,44.6,41.0,87,30.18,6.0,Calm,Calm,-,N/A,,Mostly Cloudy,0,2013-05-01 05:35:00
10:55 PM,42.8,41.0,93,30.18,6.0,Calm,Calm,-,N/A,,Scattered Clouds,0,2013-05-01 05:55:00
11:15 PM,42.8,41.0,93,30.17,5.0,Calm,Calm,-,N/A,,Clear,0,2013-05-01 06:15:00
11:35 PM,42.8,41.0,93,30.17,5.0,Calm,Calm,-,N/A,,Partly Cloudy,0,2013-05-01 06:35:00
11:55 PM,41.0,39.2,93,30.17,5.0,Calm,Calm,-,N/A,,Mostly Cloudy,0,2013-05-01 06:55:00